Weather History for Alpine, TX

Change the Weather History Date:

Thursday, January 10, 2013

  Actual Average (KMRF) Record (KMRF)
Temperature  
Mean Temperature 42 °F -  
Max Temperature 53 °F 56 °F 73 °F (2005)
Min Temperature 32 °F 25 °F 10 °F (2006)
Degree Days  
Heating Degree Days 22    
Moisture  
Dew Point 34 °F    
Average Humidity 73    
Maximum Humidity 95    
Minimum Humidity 46    
Precipitation  
Precipitation 0.49 in - - ()
Sea Level Pressure  
Sea Level Pressure 30.09 in    
Wind  
Wind Speed 7 mph (South)    
Max Wind Speed 21 mph    
Max Gust Speed 26 mph    
Visibility 10 miles    
Events      
Averages and records for this station are not official NWS values.
T = Trace of Precipitation, MM = Missing Value Source: NWS Daily Summary

Daily Weather History Graph

Daily Weather History Graph

Search for Another Location

Airport:

Trip Planner

Search our weather history database for the weather conditions in past years. The results will help you decide how hot, cold, wet, or windy it might be!

Date:

Astronomy

Jan. 10, 2013 Rise Set
Actual Time 7:52 AM CST 6:12 PM CST
Civil Twilight 7:26 AM CST 6:38 PM CST
Nautical Twilight 6:56 AM CST 7:08 PM CST
Astronomical Twilight 6:27 AM CST 7:37 PM CST
Moon 6:35 AM CST (1/10) 5:21 PM CST (1/10)
Length of Visible Light 11h 12m
Length of Day
10h 19m
Waning Crescent, 2% of the Moon is Illuminated
Jan 10
Waning Crescent
Jan 11
New
Jan 18
First Quarter
Jan 26
Full
Feb 3
Last Quarter

Hourly Weather History & Observations

Time (CST) Temp. Windchill Dew Point Humidity Pressure Visibility Wind Dir Wind Speed Gust Speed Precip Events Conditions
12:15 AM 36.5 °F 32.7 °F 32.0 °F 84% 30.13 in 10.0 mi WNW 4.6 mph - 0.02 in   Overcast
12:35 AM 36.3 °F - 32.2 °F 85% 30.13 in 10.0 mi Calm Calm - 0.04 in   Overcast
12:55 AM 37.6 °F 35.1 °F 32.0 °F 80% 30.12 in 10.0 mi WSW 3.5 mph - 0.07 in   Overcast
2:15 AM 34.7 °F - 32.4 °F 91% 30.14 in 10.0 mi Calm Calm - 0.02 in   Overcast
2:35 AM 34.9 °F - 32.5 °F 91% 30.14 in 10.0 mi Calm Calm - 0.03 in   Overcast
2:55 AM 34.5 °F 31.6 °F 32.5 °F 92% 30.13 in 10.0 mi SE 3.5 mph - 0.04 in   Overcast
3:15 AM 33.8 °F 29.6 °F 32.5 °F 95% 30.12 in 10.0 mi SE 4.6 mph - N/A   Scattered Clouds
3:35 AM 33.8 °F - 32.2 °F 94% 30.12 in 10.0 mi Calm Calm - N/A   Clear
3:55 AM 34.7 °F - 32.4 °F 91% 30.12 in 10.0 mi Calm Calm - N/A   Clear
4:15 AM 33.8 °F 27.0 °F 32.0 °F 93% 30.11 in 10.0 mi South 8.1 mph - N/A   Clear
4:35 AM 33.4 °F 25.9 °F 31.8 °F 94% 30.11 in 10.0 mi SSW 9.2 mph - N/A   Clear
4:55 AM 34.0 °F 26.0 °F 31.8 °F 92% 30.10 in 10.0 mi SW 10.4 mph - N/A   Clear
5:15 AM 33.4 °F 24.8 °F 31.5 °F 92% 30.10 in 10.0 mi SW 11.5 mph - 0.01 in   Clear
5:35 AM 32.7 °F 24.5 °F 31.3 °F 94% 30.10 in 10.0 mi SSW 10.4 mph - 0.01 in   Clear
5:55 AM 34.3 °F 29.2 °F 31.1 °F 88% 30.10 in 10.0 mi SSW 5.8 mph - 0.01 in   Clear
6:15 AM 36.1 °F 30.6 °F 30.9 °F 81% 30.11 in 10.0 mi SW 6.9 mph - N/A   Clear
6:35 AM 36.9 °F 30.1 °F 30.7 °F 79% 30.11 in 10.0 mi SSW 9.2 mph - 0.01 in   Clear
6:55 AM 35.4 °F 29.0 °F 30.6 °F 82% 30.11 in 10.0 mi South 8.1 mph - 0.02 in   Clear
7:15 AM 34.5 °F 26.2 °F 30.7 °F 86% 30.11 in 10.0 mi SSW 11.5 mph - N/A   Clear
7:35 AM 34.7 °F 27.5 °F 30.9 °F 86% 30.12 in 10.0 mi SSW 9.2 mph - 0.01 in   Clear
7:55 AM 35.4 °F 32.6 °F 31.1 °F 84% 30.13 in 10.0 mi SSW 3.5 mph - 0.01 in   Clear
8:15 AM 37.0 °F 32.4 °F 30.9 °F 79% 30.12 in 10.0 mi East 5.8 mph - 0.01 in   Clear
8:35 AM 38.1 °F 30.7 °F 30.7 °F 75% 30.13 in 10.0 mi SE 11.5 mph - 0.02 in   Clear
8:55 AM 37.8 °F 30.7 °F 30.7 °F 76% 30.14 in 10.0 mi SSE 10.4 mph 18.4 mph 0.06 in   Clear
9:15 AM 37.8 °F - 30.9 °F 76% 30.14 in 10.0 mi Calm Calm - 0.02 in   Clear
9:55 AM 39.6 °F 34.0 °F 31.3 °F 72% 30.15 in 10.0 mi SSE 8.1 mph - 0.11 in   Clear
10:35 AM 39.7 °F 32.7 °F 31.8 °F 73% 30.16 in 10.0 mi South 11.5 mph 19.6 mph 0.14 in   Clear
10:55 AM 39.7 °F 32.7 °F 32.4 °F 75% 30.17 in 10.0 mi SSE 11.5 mph - 0.17 in   Clear
11:15 AM 40.8 °F 34.5 °F 33.1 °F 74% 30.16 in 10.0 mi SSE 10.4 mph - N/A   Clear
11:35 AM 41.2 °F 35.5 °F 33.1 °F 73% 30.15 in 10.0 mi South 9.2 mph - N/A   Clear
11:55 AM 41.2 °F 35.0 °F 33.4 °F 74% 30.14 in 10.0 mi South 10.4 mph - N/A   Clear
12:15 PM 42.1 °F 34.9 °F 33.8 °F 72% 30.13 in 10.0 mi SSE 13.8 mph 19.6 mph N/A   Clear
12:35 PM 42.4 °F 35.7 °F 34.3 °F 73% 30.11 in 10.0 mi SSE 12.7 mph 18.4 mph N/A   Clear
12:55 PM 42.8 °F 34.0 °F 35.4 °F 75% 30.09 in 10.0 mi SSE 20.7 mph 26.5 mph N/A   Clear
1:15 PM 42.8 °F 35.8 °F 36.5 °F 78% 30.08 in 10.0 mi SSE 13.8 mph 20.7 mph N/A   Clear
1:35 PM 44.1 °F 36.8 °F 37.9 °F 79% 30.07 in 10.0 mi South 16.1 mph 19.6 mph N/A   Clear
1:55 PM 45.9 °F 40.0 °F 38.5 °F 75% 30.07 in 10.0 mi South 12.7 mph 20.7 mph N/A   Clear
2:15 PM 47.7 °F - 38.7 °F 71% 30.06 in 10.0 mi South 11.5 mph 17.3 mph N/A   Clear
2:35 PM 49.6 °F - 36.7 °F 61% 30.06 in 10.0 mi South 12.7 mph 18.4 mph N/A   Clear
2:55 PM 51.4 °F - 33.6 °F 51% 30.05 in 10.0 mi SSW 15.0 mph - N/A   Clear
3:15 PM 52.7 °F - 32.9 °F 47% 30.04 in 10.0 mi SSW 18.4 mph 23.0 mph N/A   Clear
3:35 PM 53.6 °F - 33.4 °F 46% 30.04 in 10.0 mi SSW 13.8 mph 18.4 mph N/A   Clear
3:55 PM 53.6 °F - 33.1 °F 46% 30.04 in 10.0 mi SSW 13.8 mph 19.6 mph N/A   Clear
4:15 PM 52.7 °F - 32.9 °F 47% 30.04 in 10.0 mi South 9.2 mph 17.3 mph N/A   Clear
4:35 PM 52.3 °F - 34.0 °F 50% 30.04 in 10.0 mi South 6.9 mph - N/A   Clear
4:55 PM 53.4 °F - 34.5 °F 49% 30.05 in 10.0 mi SSW 9.2 mph - N/A   Clear
5:15 PM 53.2 °F - 34.3 °F 49% 30.06 in 10.0 mi South 11.5 mph - N/A   Clear
5:35 PM 53.1 °F - 34.9 °F 50% 30.06 in 10.0 mi East 4.6 mph - N/A   Clear
5:55 PM 52.5 °F - 35.4 °F 52% 30.06 in 10.0 mi SSE 10.4 mph - N/A   Clear
6:15 PM 51.8 °F - 37.4 °F 58% 30.06 in 10.0 mi SE 3.5 mph - N/A   Clear
6:35 PM 49.6 °F - 38.7 °F 66% 30.06 in 10.0 mi SSE 3.5 mph - N/A   Clear
6:55 PM 47.5 °F - 38.1 °F 70% 30.06 in 10.0 mi South 6.9 mph - N/A   Clear
7:15 PM 46.4 °F 41.5 °F 37.9 °F 72% 30.06 in 10.0 mi South 10.4 mph - N/A   Clear
7:35 PM 47.1 °F - 37.4 °F 69% 30.05 in 10.0 mi South 8.1 mph - N/A   Clear
7:55 PM 47.8 °F - 36.9 °F 66% 30.05 in 10.0 mi SSE 12.7 mph - N/A   Clear
8:15 PM 49.1 °F - 37.8 °F 65% 30.04 in 10.0 mi SE 11.5 mph - N/A   Clear
8:35 PM 48.6 °F - 38.5 °F 68% 30.06 in 10.0 mi SSE 10.4 mph - N/A   Clear
9:15 PM 50.2 °F - 39.6 °F 67% 30.07 in 10.0 mi South 12.7 mph - N/A   Clear
9:35 PM 49.6 °F - 39.7 °F 69% 30.07 in 10.0 mi South 17.3 mph - N/A   Clear
9:55 PM 48.4 °F - 39.7 °F 72% 30.07 in 10.0 mi SSE 8.1 mph - N/A   Clear
10:15 PM 48.6 °F - 39.6 °F 71% 30.06 in 10.0 mi South 10.4 mph - N/A   Clear
10:35 PM 48.7 °F - 39.2 °F 70% 30.04 in 10.0 mi South 16.1 mph - N/A   Clear
10:55 PM 49.3 °F - 39.2 °F 68% 30.04 in 10.0 mi South 12.7 mph - N/A   Clear
11:15 PM 48.7 °F - 38.7 °F 68% 30.04 in 10.0 mi South 11.5 mph - N/A   Clear
11:35 PM 48.2 °F - 38.5 °F 69% 30.04 in 10.0 mi South 11.5 mph - N/A   Clear
11:55 PM 48.7 °F - 37.9 °F 66% 30.04 in 10.0 mi South 10.4 mph - N/A   Clear